Wind_Speed
8 7 7 6 5 5 4 3 3 1 1 1 3 3 3 4 3 3 4 3 5 7 6 4 5 7 8 9 10 11 13 13 14 14 14 15 14 13 12 11 9 7 7 4 5 5 3 2 4 8 10 10 9 9 10 10 10 10 11 13 15 15 14
7 8 9 8 7 6 5 4 2 1 0 0 1 1 3 4 3 3 4 3 3 5 5 6 5 5 6 8 9 10 11 13 13 13 13 14 14 13 13 12 12 9 8 5 4 6 4 3 3 4 6 9 9 10 11 10 10 10 12 14 15 15 13
8 9 10 9 8 7 7 5 4 3 2 1 1 1 2 3 3 3 3 3 3 1 3 6 6 6 7 7 9 10 10 11 12 12 11 12 12 12 12 13 13 9 6 4 5 6 5 4 4 4 6 7 6 8 10 10 10 10 12 15 15 15 14
10 10 10 10 9 9 8 7 5 4 4 3 2 2 1 2 2 2 2 3 3 2 3 6 5 6 7 7 7 8 9 10 11 11 10 11 12 12 12 13 12 10 7 4 4 5 4 5 5 3 5 9 9 8 8 9 10 11 11 13 13 14 13
11 11 11 11 11 10 9 8 7 6 6 5 3 3 1 1 1 0 1 2 3 1 2 5 5 4 6 8 8 8 8 8 9 10 9 10 11 11 12 12 11 10 9 6 5 6 7 7 8 5 6 9 8 8 9 9 11 11 11 11 12 13 13
12 12 12 11 11 10 9 9 9 7 7 6 5 4 3 2 2 1 1 1 2 2 1 3 4 4 5 6 7 7 7 7 7 8 8 8 8 10 10 10 10 10 9 7 6 7 8 11 13 8 7 9 8 7 8 10 11 11 12 12 12 13 14
14 13 12 12 12 11 10 10 10 9 8 7 6 6 5 3 3 2 1 1 1 2 1 2 3 4 4 3 6 7 6 7 8 7 7 7 6 7 8 9 9 9 8 7 6 7 7 12 14 10 8 8 8 8 8 8 11 10 11 12 12 13 13
15 14 13 13 12 12 12 11 11 10 9 8 8 7 6 5 4 3 2 1 1 1 1 1 2 4 4 3 6 7 5 6 7 7 8 7 6 5 5 6 7 7 8 8 7 6 4 7 13 15 12 7 5 5 5 7 11 10 11 12 11 11 12
15 15 15 14 14 14 13 12 12 12 10 10 9 7 6 6 5 4 3 2 2 1 1 1 2 3 2 2 4 5 5 5 6 7 7 7 6 6 5 5 6 7 6 7 6 5 4 6 12 15 13 9 5 3 3 5 7 7 9 11 11 10 11
17 16 16 16 15 15 14 14 13 13 12 11 10 8 8 7 6 5 4 3 3 3 2 2 2 1 1 3 3 4 4 4 5 5 4 6 8 7 7 7 6 6 5 6 5 5 5 8 12 12 11 8 5 3 3 3 4 5 7 10 11 11 10
18 18 17 16 16 16 15 14 14 14 13 12 10 9 9 8 8 6 6 5 4 4 3 3 2 2 2 4 3 3 2 3 5 4 2 6 7 6 8 7 5 5 4 4 4 5 6 7 10 11 9 7 6 3 2 2 4 6 7 8 10 9 7
19 19 18 18 17 17 17 16 15 14 13 12 11 10 10 10 9 7 6 6 5 5 4 3 3 1 2 3 2 3 2 1 5 4 2 4 5 5 6 4 3 4 4 3 3 3 4 5 7 9 7 6 5 3 3 5 5 4 7 9 9 7 7
21 20 20 19 19 19 17 16 16 14 13 13 12 11 10 10 10 8 7 7 6 5 5 3 2 1 2 2 3 4 2 0 4 3 1 2 2 4 6 3 1 2 4 5 3 1 2 4 6 6 6 5 5 4 6 9 7 4 8 10 9 8 9
21 20 21 21 19 19 18 17 16 15 14 13 12 12 10 10 10 9 8 7 7 6 5 4 3 2 3 2 3 3 1 1 3 3 1 1 1 2 4 4 3 2 3 5 3 2 2 5 5 5 6 5 7 7 9 11 10 8 8 10 10 10 9
20 21 24 22 20 18 17 17 16 15 15 14 13 11 10 10 9 9 8 7 7 6 4 5 4 2 2 2 3 3 2 2 3 2 1 1 1 0 2 3 4 3 2 3 4 5 2 4 5 7 8 6 7 9 11 13 13 11 9 11 11 9 6
21 22 26 24 19 18 17 16 15 15 15 14 13 11 10 9 9 9 8 7 7 5 5 5 4 2 3 3 2 3 3 2 2 1 1 1 1 1 0 1 3 3 2 3 3 3 3 2 3 8 8 6 8 11 13 14 14 13 12 12 12 9 7
22 23 24 25 20 17 17 16 15 14 14 13 13 12 10 9 9 9 9 8 7 7 6 5 4 3 4 4 2 2 2 2 2 2 1 0 1 2 1 1 2 2 2 3 3 1 1 3 3 7 10 8 10 14 15 14 13 14 15 13 11 12 10
19 21 22 23 23 19 16 15 15 14 14 13 12 12 11 10 10 9 9 8 8 7 7 6 5 4 4 4 3 3 3 2 3 2 1 1 2 2 1 2 2 3 3 3 3 3 1 4 2 6 11 11 11 13 16 16 13 13 15 13 11 12 12
16 18 19 19 20 21 19 16 15 14 13 13 13 12 12 11 10 10 9 8 8 8 7 7 6 5 4 4 3 3 4 3 3 3 3 2 2 2 2 2 2 2 2 4 4 3 2 4 3 2 7 10 11 9 13 17 14 12 15 14 11 12 12
14 15 15 14 15 16 20 18 13 13 13 13 13 13 12 11 10 10 9 8 7 8 8 7 6 5 4 4 4 4 4 4 4 4 4 4 3 3 3 3 3 2 1 3 5 3 1 3 5 5 4 6 8 7 7 10 9 9 12 13 13 11 10
12 13 12 12 11 11 17 19 13 13 16 15 14 13 12 11 10 9 9 8 7 7 8 8 6 5 5 5 5 4 4 4 4 4 4 4 4 4 4 4 3 2 2 1 2 3 3 2 4 6 7 7 7 7 6 6 6 6 7 11 13 9 9
12 12 11 10 9 7 11 16 16 16 19 18 16 13 12 11 10 10 8 8 8 8 8 8 7 6 6 5 5 4 4 4 4 4 5 4 5 5 4 3 2 2 3 3 1 1 2 3 4 5 6 6 6 5 4 6 6 6 6 9 12 11 11
15 13 12 9 8 7 7 11 13 16 19 19 15 14 12 10 10 10 9 9 9 9 9 9 10 10 8 6 5 4 5 5 4 5 5 5 5 4 2 2 3 4 4 3 3 2 1 2 5 6 5 5 5 4 4 4 3 6 8 9 12 14 11
19 17 15 11 10 10 8 9 10 13 15 18 16 12 11 10 10 10 10 10 10 10 10 11 11 11 11 9 7 5 5 5 5 5 5 5 6 5 4 3 5 6 4 4 4 3 2 1 2 4 3 3 4 3 3 3 3 3 4 5 9 13 10
22 21 20 17 14 13 11 9 8 10 10 11 14 12 9 10 10 10 11 11 11 12 12 13 12 12 12 11 9 7 6 5 6 5 6 6 6 7 7 6 6 6 4 4 4 2 2 1 0 1 1 1 1 1 2 3 6 8 7 5 6 9 6
22 23 24 21 17 15 13 10 7 9 9 9 11 11 11 12 12 11 12 12 12 13 15 15 14 13 12 11 12 11 7 5 7 6 6 6 7 8 8 7 7 6 5 6 4 2 2 1 1 2 2 3 3 3 2 1 4 6 8 8 4 5 2
20 21 23 23 20 17 15 11 8 8 9 10 13 14 15 15 14 13 14 14 14 15 17 17 15 14 13 11 12 14 9 5 7 7 6 6 7 7 8 7 8 7 6 7 6 4 2 1 0 1 1 1 3 5 6 5 2 3 4 6 6 7 6
19 20 21 21 20 18 15 12 9 8 9 11 14 16 18 19 16 15 15 16 16 16 17 18 16 15 14 11 12 16 11 6 7 8 6 7 7 7 7 7 8 8 7 8 8 7 6 4 4 5 5 3 3 4 6 7 5 4 3 3 6 8 8
22 22 21 18 17 17 16 14 12 9 8 11 13 16 19 20 19 18 17 17 18 17 17 18 18 16 15 11 13 17 12 7 8 8 7 8 8 8 8 7 8 9 9 10 10 9 9 7 6 6 5 2 2 2 3 6 6 6 5 3 4 6 8
25 25 24 19 15 16 18 17 16 14 11 11 13 15 19 21 21 21 20 19 20 19 19 19 19 17 16 13 14 18 14 8 9 10 9 9 9 8 9 8 8 10 10 10 10 11 11 9 7 6 6 4 2 1 2 4 6 7 7 6 4 5 6
24 26 26 22 17 15 16 17 18 19 17 15 15 16 19 22 23 22 20 21 22 21 19 20 20 19 17 15 16 19 16 10 11 12 10 10 10 9 10 10 9 11 11 9 10 13 13 11 9 7 7 7 5 3 3 3 4 6 6 7 7 6 6
21 23 23 22 19 16 16 16 17 20 20 19 19 19 19 20 22 21 19 19 20 21 20 20 21 21 19 16 18 20 17 12 13 13 12 11 11 10 12 12 12 11 10 8 9 14 15 12 10 9 7 8 8 5 3 4 4 4 4 4 5 6 7
21 20 20 20 20 18 17 16 15 18 20 19 18 21 21 19 19 21 21 19 17 17 20 21 21 22 21 19 19 21 20 15 14 15 14 12 12 12 12 13 14 12 9 8 10 15 16 13 11 11 9 8 9 9 6 5 4 4 4 5 4 4 5
21 20 19 20 19 17 17 18 17 16 17 16 16 19 22 20 20 22 23 23 20 17 19 21 22 22 22 22 21 22 23 17 13 15 16 14 13 14 13 13 15 15 11 9 12 16 16 13 11 11 9 9 12 11 7 7 7 5 5 6 6 6 6
24 20 19 20 21 19 17 18 19 15 13 13 14 16 18 19 21 23 24 23 22 20 19 20 22 23 24 24 23 23 25 21 14 13 16 16 15 16 16 14 14 16 14 11 13 17 16 12 12 11 9 11 14 11 7 7 8 7 7 7 8 7 7
26 23 19 19 23 23 19 17 16 12 11 12 13 13 14 14 17 20 22 21 22 23 22 21 23 26 26 26 25 24 26 25 19 12 12 15 14 15 18 17 13 14 15 13 14 18 17 14 13 12 10 11 12 10 8 8 7 7 8 9 9 8 8
25 24 21 20 22 24 22 17 12 10 11 13 12 11 13 13 13 14 16 18 20 22 23 22 22 25 27 27 27 26 26 26 23 16 11 11 11 11 17 20 16 13 14 15 16 18 18 15 14 13 12 11 11 10 9 8 7 6 6 7 8 7 7
Wind_Direction
190 179 183 181 183 185 187 220 232 188 105 26 356 350 348 2 4 341 348 347 343 356 4 13 20 11 9 7 4 11 9 7 14 12 1 3 8 4 3 9 15 50 94 122 166 155 122 112 96 83 86 87 80 80 96 104 101 105 111 105 96 89 83
185 185 190 187 186 188 192 207 229 244 210 356 347 345 339 349 353 336 344 15 6 349 352 6 12 11 12 5 2 8 9 8 11 10 5 5 5 1 3 10 15 42 77 81 107 112 109 134 134 116 110 99 79 67 78 89 86 87 96 98 95 89 80
192 195 194 187 189 197 198 197 210 233 226 242 315 295 332 351 347 335 348 22 27 2 344 351 1 16 16 1 356 2 6 7 5 4 7 7 5 5 11 19 18 27 62 58 47 83 114 123 112 131 132 117 97 78 80 86 88 88 90 93 93 89 83
201 201 198 192 194 201 201 198 205 217 221 235 268 251 300 339 335 341 349 8 21 31 354 356 8 16 7 356 356 356 356 3 2 357 5 13 12 12 16 22 21 25 51 52 27 57 73 75 93 122 134 128 122 110 101 99 104 102 95 96 97 94 90
209 206 206 205 204 202 200 200 204 218 221 216 220 215 243 297 212 116 339 1 5 337 342 5 17 8 355 358 1 350 348 1 358 348 0 17 17 18 18 19 23 30 42 44 41 61 69 93 124 146 148 137 121 114 122 119 114 111 105 105 103 99 94
216 214 213 213 214 209 203 200 202 216 216 204 205 206 220 229 179 192 297 29 349 319 337 360 3 351 346 349 344 342 351 353 337 336 2 22 20 22 23 21 27 31 30 34 53 73 93 127 146 152 144 135 121 129 150 138 118 110 106 105 101 98 94
221 221 220 219 218 213 209 205 204 211 212 206 206 202 205 204 182 203 211 154 297 313 343 341 339 333 343 346 330 338 353 345 339 346 0 11 18 20 26 29 27 27 29 31 52 74 101 138 152 151 134 129 136 159 176 148 125 113 105 103 99 97 96
226 225 226 226 220 214 213 210 205 207 205 203 199 193 194 193 190 198 183 191 268 300 302 332 330 315 338 359 334 339 353 344 348 354 347 355 13 7 17 35 26 26 34 29 46 73 96 144 154 151 142 138 149 167 167 121 109 105 104 103 99 100 101
230 227 227 228 224 216 214 211 204 202 201 199 195 193 194 187 187 194 190 201 223 240 257 273 285 286 321 349 326 332 345 342 343 352 350 349 359 356 4 43 39 29 32 26 37 66 92 149 160 156 151 153 156 163 150 106 96 100 109 108 101 101 106
233 230 227 226 224 218 215 213 206 200 199 197 194 194 193 186 186 197 199 195 203 217 228 255 281 315 333 303 300 314 325 325 326 348 1 338 341 354 7 37 43 20 25 29 28 53 96 147 168 166 160 165 170 159 137 125 121 114 113 113 106 99 101
235 234 231 226 222 218 216 213 205 200 197 194 191 191 191 192 193 197 196 191 203 218 219 248 288 355 327 299 300 307 297 287 308 326 339 328 338 357 9 26 28 11 26 31 25 53 90 138 167 170 168 179 185 170 139 131 123 114 114 114 111 110 114
238 237 234 228 221 217 216 212 204 200 198 193 192 192 191 194 196 198 199 197 208 211 204 246 288 310 305 303 298 298 287 263 309 327 333 333 344 349 357 10 16 17 9 351 28 71 95 126 161 176 178 191 200 191 157 133 113 131 148 126 114 129 139
241 239 236 230 223 217 215 212 205 200 198 195 193 194 194 195 198 202 201 201 210 205 197 221 245 245 264 257 259 295 349 348 297 307 323 21 4 329 331 340 38 40 351 351 33 124 161 152 169 178 175 191 202 177 143 133 121 148 159 138 134 147 140
251 251 246 233 224 221 216 211 205 198 196 197 197 197 198 198 201 205 205 206 209 203 204 211 192 197 247 224 217 270 339 322 297 312 3 29 2 320 326 345 43 69 357 357 358 316 214 183 179 155 156 175 182 166 143 139 137 137 141 143 146 145 144
273 278 269 246 226 223 221 213 204 198 197 199 199 199 200 203 204 207 210 210 203 198 204 197 174 183 238 226 214 222 210 232 284 315 353 291 282 230 313 339 28 45 4 350 330 325 301 202 173 156 160 159 165 164 152 147 144 138 147 152 142 139 165
278 281 284 268 238 224 225 219 206 200 199 199 200 201 203 205 207 210 212 209 202 197 200 186 166 177 217 216 218 204 187 209 239 243 243 263 266 98 230 323 26 24 348 337 320 318 310 267 190 164 155 144 155 158 156 155 149 150 161 155 144 155 184
262 261 277 282 265 238 227 221 211 206 203 201 201 201 204 207 207 211 213 210 205 197 198 196 180 192 213 208 204 191 175 180 184 188 229 276 87 65 31 29 34 14 352 331 330 359 324 285 235 162 145 142 153 156 159 159 156 163 164 154 161 173 172
259 251 257 276 282 268 246 226 214 210 207 206 206 201 202 207 208 213 214 211 210 201 200 206 193 193 208 200 186 173 157 158 163 160 154 123 112 90 50 65 56 28 16 2 8 35 357 304 270 160 151 145 145 159 169 165 165 169 159 159 174 163 153
270 259 254 267 283 280 269 246 219 213 213 211 211 206 203 206 207 212 214 211 215 208 198 200 195 186 187 177 168 165 155 151 151 140 128 126 134 132 105 90 87 59 38 47 50 44 346 335 359 140 163 157 154 167 170 166 171 167 158 166 165 143 145
291 281 275 277 278 273 274 269 240 227 231 223 216 212 207 207 208 211 212 209 217 214 197 191 192 188 184 175 161 156 154 151 149 142 129 127 134 128 116 119 133 146 93 65 65 65 40 357 15 44 82 129 142 135 136 150 156 152 157 158 142 139 149
307 300 297 290 281 266 272 282 275 253 248 236 222 218 213 207 208 214 214 209 214 213 195 188 191 194 194 180 167 162 166 162 156 151 141 138 137 133 139 154 166 179 196 154 65 68 76 37 32 60 66 73 101 108 106 120 128 146 164 145 137 153 153
326 318 314 301 297 286 273 282 283 269 262 250 229 220 220 212 206 213 215 210 214 210 194 193 199 197 188 174 170 178 178 176 171 162 157 150 142 139 156 185 193 175 188 200 188 107 80 52 55 79 83 78 93 99 99 125 154 180 171 146 153 167 155
346 340 337 326 318 315 290 280 268 260 271 272 250 225 221 217 211 214 215 212 215 210 197 202 210 204 192 178 175 185 186 182 181 174 164 154 147 145 159 178 154 144 148 159 173 179 133 74 73 85 91 93 100 92 87 117 186 188 179 183 174 165 164
2 357 355 355 347 335 319 299 263 244 265 283 277 250 227 222 219 217 219 218 214 210 206 210 217 214 207 200 187 183 190 190 186 179 173 165 161 153 136 128 133 134 138 146 159 179 174 111 88 97 101 104 104 86 75 56 31 92 153 203 167 159 182
14 9 4 1 355 348 338 319 273 238 246 274 281 275 254 242 237 223 221 222 215 211 215 218 221 220 219 219 208 190 187 197 195 186 184 184 175 159 144 133 129 130 146 155 150 163 177 187 205 142 159 175 148 67 74 58 47 57 42 22 140 162 197
16 14 10 4 357 356 351 333 286 244 238 242 249 250 240 240 245 233 223 225 221 216 219 223 224 224 227 230 219 200 189 202 203 192 195 194 176 162 156 151 149 147 148 144 138 151 187 206 245 240 255 253 251 262 238 124 72 72 46 26 82 127 128
11 9 8 5 358 357 357 346 315 272 256 240 226 221 217 223 237 237 227 226 226 222 223 225 225 226 231 235 221 203 192 204 208 200 199 192 171 166 168 165 167 165 151 145 148 153 154 144 158 135 110 175 218 240 233 216 179 123 84 37 61 90 95
8 4 6 5 357 353 354 350 332 299 272 250 232 221 217 219 228 235 231 227 226 225 227 226 225 227 231 235 218 202 192 199 209 203 195 185 173 173 175 174 174 168 162 168 169 160 151 143 137 135 128 142 198 232 229 219 215 190 160 73 73 100 113
7 1 359 360 357 351 347 345 336 314 281 257 240 227 223 223 224 228 230 229 226 226 228 226 225 226 228 227 211 198 190 192 203 203 195 185 183 181 179 180 176 169 176 188 185 173 162 151 147 151 149 156 227 235 203 198 201 196 189 169 109 116 127
3 356 351 349 355 354 346 340 336 327 306 276 255 239 234 233 230 227 228 229 225 226 228 224 222 224 223 219 205 193 189 194 202 202 197 189 190 190 185 186 183 182 194 202 194 185 172 155 151 160 157 146 130 117 143 170 191 195 197 196 170 146 147
355 351 349 350 355 357 350 341 337 334 323 303 287 269 250 243 240 234 235 235 227 224 228 223 218 219 219 216 205 192 188 200 203 199 196 193 193 194 193 190 187 195 208 209 193 184 173 158 155 160 161 156 146 133 123 131 169 188 197 208 203 194 192
350 346 348 354 356 354 349 345 345 346 337 320 306 293 274 258 251 245 247 251 238 227 228 224 216 216 215 214 208 194 189 203 206 194 191 194 195 199 203 197 190 199 212 206 187 178 170 163 159 157 166 170 160 153 140 114 113 129 138 170 194 203 206
349 345 343 347 348 343 341 342 346 352 347 334 317 304 291 278 269 258 252 255 253 240 233 223 215 215 215 215 211 198 191 203 208 195 190 195 196 198 205 204 199 204 213 202 184 175 171 168 161 160 176 184 162 148 149 146 131 112 108 115 123 142 167
344 346 341 339 337 331 333 334 333 340 344 337 322 309 298 289 283 273 260 255 255 253 243 228 217 215 217 218 214 201 194 198 207 198 192 196 199 196 199 206 206 207 211 202 184 178 176 174 170 169 178 177 161 152 154 165 160 145 140 140 135 137 148
336 339 336 336 334 326 326 329 328 331 337 329 314 303 297 294 290 281 269 260 253 246 242 233 223 219 220 219 216 208 199 195 199 199 194 197 204 201 198 207 212 208 209 204 188 183 182 180 178 177 166 160 164 165 158 157 158 153 155 160 159 161 162
330 328 328 334 334 327 324 326 327 335 343 332 315 297 291 298 299 285 271 264 257 246 241 237 230 226 223 220 217 215 207 199 195 194 190 197 209 207 201 204 209 206 204 202 192 188 187 185 186 183 169 162 170 176 163 157 170 186 186 178 172 171 175
326 327 333 339 331 323 323 327 330 344 353 344 330 310 298 299 308 298 278 269 264 253 245 241 236 227 222 220 221 220 215 207 201 196 189 193 204 206 202 202 202 199 197 196 193 193 193 192 193 192 185 180 182 179 166 163 184 201 191 176 169 170 182
Height
831 831 832 831 831 831 831 831 831 830 830 830 829 828 828 827 827 826 826 825 825 825 825 825 825 824 824 824 824 823 823 822 822 821 821 821 821 821 821 821 821 822 823 822 822 825 828 831 832 832 832 833 833 833 833 834 834 834 834 834 835 836 836
831 831 831 831 831 831 830 830 830 830 830 829 829 828 828 827 827 826 826 825 825 825 825 825 824 824 824 824 824 824 823 823 822 822 822 822 822 821 821 821 821 822 822 822 823 824 825 829 832 832 832 833 833 834 834 834 835 835 835 835 836 836 837
830 830 830 830 830 829 830 830 830 830 829 829 828 828 827 827 826 826 825 825 825 825 825 825 824 824 824 824 824 824 824 823 823 822 822 822 822 822 822 822 822 822 822 822 823 824 825 827 830 831 832 833 834 835 835 835 836 836 836 836 836 837 838
829 829 829 828 828 828 828 828 828 829 828 828 828 827 827 826 826 826 825 825 825 825 825 824 824 824 824 825 824 824 824 823 823 823 822 822 822 822 823 822 823 823 823 823 824 825 826 827 830 832 832 833 834 835 836 836 836 837 837 837 838 838 838
828 828 827 827 827 827 827 827 827 827 827 827 827 826 826 826 826 825 825 825 825 825 825 824 824 825 825 825 824 825 824 824 823 823 823 823 823 823 823 823 824 823 823 824 825 825 826 826 828 831 832 832 834 835 836 836 836 837 838 838 839 839 839
827 826 826 826 826 826 826 826 826 826 826 826 826 826 825 825 825 825 825 825 825 824 824 825 825 825 825 825 825 825 824 824 824 824 823 824 824 824 824 824 824 824 824 824 825 825 825 825 827 829 831 832 834 835 836 836 836 837 838 839 840 840 840
826 825 825 825 825 825 824 824 825 825 825 825 825 825 825 825 824 824 824 824 824 824 824 825 825 825 825 825 825 825 824 824 824 824 824 824 824 824 824 824 824 825 825 824 825 825 825 826 827 829 830 832 833 834 835 836 836 837 838 840 840 841 841
825 825 824 824 824 823 823 823 823 823 823 824 823 823 823 824 824 823 823 824 824 824 824 825 825 825 825 825 825 825 825 825 824 824 824 824 824 825 824 824 824 825 825 825 825 825 825 826 827 828 829 831 833 834 834 835 836 838 839 840 841 841 841
824 824 823 823 822 822 822 822 822 822 822 822 822 822 822 822 823 823 823 823 823 824 824 824 825 825 824 825 825 825 825 825 825 825 824 824 825 825 825 825 824 825 825 825 825 826 826 826 826 828 828 830 832 833 834 835 837 838 840 840 842 842 842
823 823 822 822 821 821 821 821 821 821 821 821 821 821 822 821 822 822 822 823 823 824 824 824 824 824 824 825 825 825 825 825 825 825 825 825 825 825 825 825 825 825 826 826 826 826 826 826 826 828 829 829 831 832 833 836 838 838 840 841 841 843 843
822 821 821 821 821 821 821 820 820 820 820 820 820 820 821 821 821 821 822 822 823 823 823 824 824 824 824 825 825 825 825 825 825 825 825 825 825 825 825 825 825 825 826 826 826 826 826 826 827 828 829 829 830 831 832 834 837 838 840 841 841 843 844
821 821 820 821 820 820 820 820 820 820 819 820 820 820 820 820 821 821 821 822 822 822 823 823 823 824 824 825 825 825 825 825 825 825 825 825 825 826 825 826 826 826 826 826 826 827 827 827 827 828 829 830 830 831 832 833 836 839 840 840 842 843 844
821 820 820 820 820 819 819 819 819 819 819 820 819 819 820 820 820 820 821 821 821 822 822 823 823 824 824 824 825 825 825 825 825 825 825 826 826 827 826 826 826 826 827 826 826 827 827 827 827 828 829 830 830 831 832 833 836 838 840 840 842 843 844
821 822 822 821 820 819 819 819 819 819 819 819 819 819 820 820 820 820 820 821 821 821 822 822 822 823 824 824 824 825 825 825 825 825 825 826 826 827 827 827 827 827 827 827 826 826 826 826 827 828 829 830 830 831 832 834 835 838 839 840 842 843 844
823 826 827 823 820 819 819 818 818 818 818 819 819 819 820 819 820 820 820 820 820 821 821 821 822 823 823 824 824 824 825 825 825 825 825 826 826 827 827 827 827 827 828 828 827 826 826 826 826 827 828 829 830 831 832 834 835 837 839 840 841 843 844
826 827 828 825 821 820 820 819 818 818 818 818 818 819 819 820 820 820 820 820 820 821 821 821 822 823 823 824 824 824 824 824 825 825 825 826 826 826 827 827 828 828 828 828 827 827 826 826 826 826 827 828 830 831 832 834 835 836 838 840 841 842 843
821 822 823 824 823 821 820 820 819 819 818 818 818 818 819 819 820 820 820 820 820 820 821 821 821 822 823 823 823 823 823 824 824 824 825 825 825 826 827 827 828 828 828 828 827 827 826 826 826 826 827 828 829 830 832 833 834 835 837 838 839 841 842
814 815 817 821 823 824 822 821 820 819 819 819 818 818 818 819 819 819 819 820 820 820 821 821 821 822 822 823 823 823 823 823 824 824 824 825 825 826 827 827 828 828 828 828 827 827 827 827 826 826 827 827 829 830 831 832 833 833 835 837 838 840 841
813 813 814 817 820 823 824 822 820 819 819 819 818 818 818 818 819 819 819 819 819 820 820 821 821 821 822 822 822 823 823 823 823 824 824 825 825 826 826 827 827 827 827 827 827 827 827 826 826 827 827 827 828 829 830 831 832 833 834 836 837 839 840
812 813 814 815 816 820 823 823 823 822 821 819 818 818 817 818 818 818 818 819 819 819 820 820 821 821 822 822 822 823 823 823 823 823 824 824 825 826 826 826 826 827 827 827 827 828 827 827 827 827 827 827 827 828 830 831 831 833 834 835 836 838 840
812 812 814 814 814 815 818 822 824 825 823 819 818 817 817 817 817 817 818 818 818 819 819 820 820 821 821 821 822 822 823 823 823 823 824 824 825 825 825 825 826 827 827 828 828 828 828 828 827 827 827 827 828 829 830 830 831 833 834 834 836 838 839
812 812 813 813 813 813 814 818 821 824 823 819 817 816 817 817 817 817 817 817 818 818 818 819 820 820 821 821 822 822 823 823 823 824 824 824 825 825 824 825 826 827 827 828 828 828 828 829 828 828 828 828 828 829 830 831 832 833 834 834 835 837 838
812 812 812 812 813 812 812 813 815 817 819 819 817 815 816 817 817 817 817 817 817 817 817 818 818 819 820 821 822 822 823 823 823 824 824 824 825 824 824 825 826 826 827 828 828 829 829 829 829 829 829 829 830 830 831 832 832 833 833 834 834 836 837
813 813 812 813 813 812 811 810 810 811 814 816 817 815 815 816 817 817 817 816 817 817 816 816 817 818 819 821 822 822 823 823 823 824 824 824 824 824 824 825 825 826 827 827 828 829 829 830 830 830 831 831 831 832 832 832 832 832 833 833 833 835 836
814 814 813 812 812 811 810 809 808 809 810 812 814 815 817 817 816 816 816 815 816 816 815 815 816 817 818 820 821 822 823 823 823 824 824 824 824 824 824 825 825 826 827 827 828 829 829 830 831 831 832 832 832 832 832 833 832 832 833 833 833 834 835
815 815 813 812 812 810 810 808 807 808 808 808 810 813 816 816 815 815 815 814 815 815 814 814 814 816 817 819 820 821 822 823 823 823 824 824 824 824 824 825 825 826 826 827 828 828 829 830 831 831 832 832 832 833 833 833 833 833 833 833 833 834 835
816 815 814 813 811 810 809 808 807 807 807 807 807 810 812 811 812 813 813 813 813 813 812 813 813 814 816 817 819 820 822 822 823 823 823 823 824 824 824 825 825 825 826 827 827 828 829 830 831 832 832 832 832 832 833 834 834 834 834 834 833 834 835
816 815 814 813 811 810 809 808 807 807 807 806 805 806 807 808 808 810 811 811 812 811 811 811 812 813 814 816 818 819 821 821 822 822 823 822 823 824 824 825 825 825 826 826 827 828 829 830 831 832 832 832 832 833 833 833 834 834 835 835 835 835 835
817 816 815 814 812 811 810 809 808 807 807 807 805 805 805 806 806 808 808 809 810 810 810 810 810 811 813 815 816 818 820 820 821 822 822 822 823 823 824 824 825 825 825 825 826 827 828 830 831 832 832 832 833 833 833 833 834 834 835 836 836 837 837
818 817 815 814 813 812 811 810 809 808 807 807 806 805 805 804 805 805 806 807 808 808 808 808 809 810 811 813 815 817 819 819 820 821 821 821 822 823 823 824 824 825 825 825 826 827 828 829 830 831 832 833 833 833 833 833 834 834 835 836 837 837 838
820 818 816 814 814 813 812 811 809 809 808 807 806 805 804 803 803 804 805 805 806 806 806 806 807 808 809 811 813 815 817 818 819 820 820 821 822 822 822 823 824 824 824 825 825 826 827 828 829 831 832 832 833 833 833 834 834 834 835 836 837 837 838
820 818 816 815 815 813 812 810 809 807 807 806 805 805 804 803 802 803 804 805 805 805 805 805 806 807 807 809 811 813 816 817 818 819 819 820 821 821 821 823 823 823 824 825 825 826 827 828 828 830 831 832 833 834 834 834 834 835 835 836 836 837 838
820 818 817 816 815 814 812 810 808 806 804 804 803 803 804 804 803 802 802 803 804 806 805 804 805 806 806 808 809 811 814 815 816 817 818 819 820 820 820 821 822 823 823 824 825 826 827 827 828 829 830 831 832 833 834 835 835 835 836 836 836 837 838
820 818 817 815 814 812 811 809 807 805 803 803 802 801 801 803 804 802 801 801 803 805 805 803 804 805 805 806 807 809 811 813 815 816 816 817 818 818 818 820 821 822 823 824 825 826 827 827 827 828 829 830 831 832 834 835 835 836 836 836 837 838 838
819 818 817 815 813 811 809 808 807 805 804 803 801 800 800 801 803 802 801 801 802 803 803 802 802 803 804 805 806 807 809 811 813 814 814 816 816 816 817 818 819 821 822 824 825 825 826 827 827 828 829 829 830 832 833 834 835 836 836 836 837 838 838
819 817 816 814 813 810 808 807 806 805 804 803 801 801 800 800 802 801 800 800 800 800 800 800 800 802 803 804 805 806 807 809 810 812 813 814 815 815 815 815 817 820 821 823 824 825 826 827 827 828 829 829 830 831 833 833 834 835 835 836 837 837 838
819 817 815 814 812 810 807 806 805 805 804 803 802 801 800 800 800 800 799 799 798 798 798 798 798 800 802 803 804 805 806 808 809 810 811 812 813 813 812 813 815 818 820 821 823 824 825 826 827 828 829 829 830 831 832 833 834 834 835 835 836 837 838